Anoka County, MN

12:16 AM CST on December 16, 2019 (GMT -0600)
Anoka County / Blaine Airport

Weather History for KANE - November, 2019

Change the Weather History Date:

Tuesday, November 12, 2019

  Actual Average Record
Temperature  
Mean Temperature 11 °F -  
Max Temperature 19 °F 40 °F 66 °F (2001)
Min Temperature 3 °F 26 °F 8 °F (1996)
Degree Days  
Heating Degree Days 54    
Moisture  
Dew Point 2 °F    
Average Humidity 66    
Maximum Humidity 85    
Minimum Humidity 42    
Precipitation  
Precipitation 0.00 in - - ()
Sea Level Pressure  
Sea Level Pressure 30.36 in    
Wind  
Wind Speed 5 mph (South)    
Max Wind Speed 18 mph    
Max Gust Speed 28 mph    
Visibility 10 miles    
Events      
Averages and records for this station are not official NWS values.
T = Trace of Precipitation, MM = Missing Value Source: NWS Daily Summary

Daily Weather History Graph

Daily Weather History Graph

Search for Another Location

Airport or City:

Astronomy

Nov. 12, 2019 Rise Set
Actual Time 7:06 AM CST 4:46 PM CST
Civil Twilight 6:34 AM CST 5:18 PM CST
Nautical Twilight 5:59 AM CST 5:53 PM CST
Astronomical Twilight 5:24 AM CST 6:28 PM CST
Moon 5:15 PM CST (11/12) 6:56 AM CST (11/12)
Length of Visible Light 10h 43m
Length of Day
9h 40m
Full, 100% of the Moon is Illuminated
Nov 12
Full
Nov 19
Last Quarter
Nov 26
New
Dec 4
First Quarter
Dec 11
Full

Hourly Weather History & Observations

Time (CST) Temp. Windchill Dew Point Humidity Pressure Visibility Wind Dir Wind Speed Gust Speed Precip Events Conditions
12:15 AM 6.8 °F -2.0 °F -0.4 °F 72% 30.58 in 10.0 mi WNW 4.6 mph - N/A   Clear
12:36 AM 6.8 °F -0.1 °F -0.4 °F 72% 30.58 in 10.0 mi NW 3.5 mph - N/A   Clear
12:56 AM 6.8 °F -0.1 °F -0.4 °F 72% 30.58 in 10.0 mi WNW 3.5 mph - N/A   Clear
1:18 AM 5.0 °F - -0.4 °F 78% 30.57 in 10.0 mi Calm Calm - N/A   Clear
1:36 AM 5.0 °F -2.1 °F -0.4 °F 78% 30.57 in 10.0 mi WNW 3.5 mph - N/A   Clear
1:56 AM 5.0 °F -2.1 °F -0.4 °F 78% 30.56 in 10.0 mi WNW 3.5 mph - N/A   Clear
2:15 AM 5.0 °F - -0.4 °F 78% 30.56 in 10.0 mi Calm Calm - N/A   Clear
2:35 AM 5.0 °F - -0.4 °F 78% 30.56 in 10.0 mi Calm Calm - N/A   Clear
2:39 AM 5.0 °F - -0.4 °F 78% 30.56 in 10.0 mi Calm Calm - N/A   Clear
2:57 AM 5.0 °F - -0.4 °F 78% 30.55 in 10.0 mi Calm Calm - N/A   Clear
3:15 AM 5.0 °F -2.1 °F -0.4 °F 78% 30.55 in 10.0 mi West 3.5 mph - N/A   Clear
3:35 AM 3.2 °F -4.2 °F -0.4 °F 85% 30.55 in 10.0 mi West 3.5 mph - N/A   Clear
3:56 AM 3.2 °F - -0.4 °F 85% 30.55 in 10.0 mi Calm Calm - N/A   Clear
4:18 AM 5.0 °F - -0.4 °F 78% 30.54 in 10.0 mi Calm Calm - N/A   Clear
4:36 AM 5.0 °F - 1.4 °F 85% 30.54 in 10.0 mi Calm Calm - N/A   Clear
4:56 AM 5.0 °F - -0.4 °F 78% 30.53 in 10.0 mi Calm Calm - N/A   Clear
5:16 AM 5.0 °F - 1.4 °F 85% 30.52 in 10.0 mi Calm Calm - N/A   Clear
5:35 AM 5.0 °F - 1.4 °F 85% 30.52 in 10.0 mi Calm Calm - N/A   Clear
5:57 AM 5.0 °F - -0.4 °F 78% 30.52 in 10.0 mi Calm Calm - N/A   Clear
6:15 AM 5.0 °F - 1.4 °F 85% 30.51 in 10.0 mi Calm Calm - N/A   Clear
6:36 AM 5.0 °F - 1.4 °F 85% 30.50 in 10.0 mi Calm Calm - N/A   Clear
6:59 AM 5.0 °F - 1.4 °F 85% 30.50 in 10.0 mi Calm Calm - N/A   Clear
7:45 AM 6.8 °F -2.0 °F 1.4 °F 79% 30.50 in 10.0 mi South 4.6 mph - N/A   Clear
8:45 AM 10.4 °F -1.5 °F 3.2 °F 73% 30.50 in 10.0 mi South 8.1 mph - N/A   Clear
9:45 AM 12.2 °F 0.7 °F 3.2 °F 67% 30.47 in 10.0 mi SSW 8.1 mph - N/A   Partly Cloudy
10:45 AM 15.8 °F 2.7 °F 1.4 °F 53% 30.44 in 10.0 mi SSW 11.5 mph - N/A   Scattered Clouds
11:45 AM 15.8 °F 2.7 °F -0.4 °F 49% 30.41 in 10.0 mi South 11.5 mph - N/A   Mostly Cloudy
12:45 PM 19.4 °F 7.2 °F -0.4 °F 42% 30.37 in 10.0 mi South 11.5 mph - N/A   Mostly Cloudy
1:45 PM 19.4 °F 7.2 °F -0.4 °F 42% 30.33 in 10.0 mi South 11.5 mph - N/A   Mostly Cloudy
2:45 PM 19.4 °F 7.2 °F -0.4 °F 42% 30.26 in 10.0 mi SSE 11.5 mph 18.4 mph N/A   Mostly Cloudy
3:45 PM 19.4 °F 5.5 °F -0.4 °F 42% 30.21 in 10.0 mi SSE 15.0 mph 23.0 mph N/A   Mostly Cloudy
4:45 PM 19.4 °F 4.1 °F 1.4 °F 46% 30.16 in 10.0 mi South 18.4 mph 27.6 mph N/A   Overcast
5:45 PM 19.4 °F 4.1 °F 3.2 °F 49% 30.14 in 10.0 mi South 18.4 mph 27.6 mph N/A   Overcast
6:45 PM 19.4 °F 5.0 °F 5.0 °F 54% 30.12 in 10.0 mi SSE 16.1 mph 25.3 mph N/A   Overcast
7:45 PM 19.4 °F 5.0 °F 5.0 °F 54% 30.11 in 10.0 mi South 16.1 mph 25.3 mph N/A   Overcast
8:45 PM 19.4 °F 5.0 °F 3.2 °F 49% 30.09 in 10.0 mi South 16.1 mph 23.0 mph N/A   Overcast
9:16 PM 19.4 °F 4.1 °F 3.2 °F 49% 30.08 in 10.0 mi South 18.4 mph 26.5 mph N/A   Scattered Clouds
9:36 PM 19.4 °F 6.6 °F 5.0 °F 54% 30.07 in 10.0 mi South 12.7 mph 21.9 mph N/A   Clear
9:58 PM 19.4 °F 6.0 °F 5.0 °F 54% 30.07 in 10.0 mi SSE 13.8 mph 19.6 mph N/A   Clear
10:16 PM 19.4 °F 6.6 °F 6.8 °F 58% 30.06 in 10.0 mi South 12.7 mph 19.6 mph N/A   Scattered Clouds
10:36 PM 19.4 °F 6.0 °F 6.8 °F 58% 30.05 in 10.0 mi SSE 13.8 mph 17.3 mph N/A   Scattered Clouds
10:56 PM 19.4 °F 6.6 °F 6.8 °F 58% 30.04 in 10.0 mi South 12.7 mph 23.0 mph N/A   Mostly Cloudy
11:15 PM 19.4 °F 5.5 °F 6.8 °F 58% 30.02 in 10.0 mi SSE 15.0 mph 18.4 mph N/A   Mostly Cloudy
11:20 PM 19.4 °F 4.5 °F 6.8 °F 58% 30.02 in 10.0 mi South 17.3 mph - N/A   Mostly Cloudy
11:37 PM 19.4 °F 5.5 °F 6.8 °F 58% 30.01 in 10.0 mi SSE 15.0 mph 19.6 mph N/A   Scattered Clouds
11:55 PM 19.4 °F 7.2 °F 6.8 °F 58% 30.00 in 10.0 mi South 11.5 mph 17.3 mph N/A   Clear